Погода в Актогае

Казахстан     48˚18′57″N   74˚58′52″E
темп.,
°C
ветер,
м/с
пор.,
м/с
влажн.,
%
обл.,
%
осадки,
мм/ч
давл.,
гПа
погр.,
м
6 декабря, вс
вс600:00−19˚вюв33100100 0.1 103921
03:00−20˚вюв22100100 0.0 104020
06:00−21˚в1110097 0.0 104120
09:00−21˚всв111007 0.0 104220
12:00−16˚в11883 0.0 104120
15:00−13˚в118459 0.0 104022
18:00−16˚св118368 0.0 104020
21:00−15˚св128285 0.0 103921
7 декабря, пн
пн700:00−14˚св228269 0.0 103820
03:00−13˚всв227882 0.0 103622
06:00−12˚всв237490 0.0 103522
09:00−13˚св127277 0.0 103421
12:00−9˚всв227789 0.0 103360
15:00−8˚всв2376100 0.0 103159
18:00−10˚св337198 0.0 103236
21:00−10˚ссз117099 0.0 103321
8 декабря, вт
вт800:00−12˚св336782 0.0 103421
03:00−13˚ссв006390 0.0 103421
06:00−14˚с126161 0.0 103421
09:00−14˚ссз11600 0.0 103621
12:00−11˚ссз11650 0.0 103621
15:00−11˚зсз11620 0.0 103621
18:00−13˚з22600 0.0 103721
21:00−13˚зсз226041 0.0 103821
9 декабря, ср
ср900:00−13˚сз226259 0.0 103921
03:00−13˚зсз226787 0.0 103921
06:00−13˚з226880 0.0 103821
09:00−12˚з2372100 0.0 103936
12:00−11˚зюз357892 0.0 1037131
15:00−12˚з478764 0.0 1036140
18:00−13˚зюз579172 0.0 1036130
21:00−13˚з598988 0.0 1035195
10 декабря, чт
чт1000:00−15˚з488894 0.0 1035147
03:00−18˚сз33910 0.0 103524
06:00−17˚сз349423 0.0 103536
09:00−18˚ссз33950 0.0 103629
12:00−15˚ссз34930 0.0 1037125
15:00−13˚сз23900 0.0 103629
18:00−16˚ссз23930 0.0 103820
21:00−17˚ссз33940 0.0 104021